Time,TemperatureF,DewpointF,PressureIn,WindDirection,WindDirectionDegrees,WindSpeedMPH,WindSpeedGustMPH,Humidity,HourlyPrecipIn,Conditions,Clouds,dailyrainin,SoftwareType,DateUTC
2013-03-05 00:07:00,17.6,17.4,29.74,South,180,0.0,-999.0,99,-99.99,,,0.00,Acu-Link.com,2013-03-05 05:07:00,
2013-03-05 00:23:00,17.6,17.4,29.75,ESE,112,0.0,-999.0,99,-99.99,,,0.00,Acu-Link.com,2013-03-05 05:23:00,
2013-03-05 00:38:00,17.6,17.4,29.75,East,90,0.0,-999.0,99,-99.99,,,0.00,Acu-Link.com,2013-03-05 05:38:00,
2013-03-05 00:53:00,17.6,17.4,29.75,NW,315,0.0,-999.0,99,-99.99,,,0.00,Acu-Link.com,2013-03-05 05:53:00,
2013-03-05 01:08:00,17.8,17.6,29.76,South,180,0.0,-999.0,99,-99.99,,,0.00,Acu-Link.com,2013-03-05 06:08:00,
2013-03-05 01:23:00,17.8,17.6,29.76,SE,135,0.0,-999.0,99,-99.99,,,0.00,Acu-Link.com,2013-03-05 06:23:00,
2013-03-05 01:39:00,17.8,17.6,29.76,SSE,157,0.0,-999.0,99,-99.99,,,0.00,Acu-Link.com,2013-03-05 06:39:00,
2013-03-05 01:54:00,17.8,17.6,29.78,ESE,112,0.0,-999.0,99,-99.99,,,0.00,Acu-Link.com,2013-03-05 06:54:00,
2013-03-05 02:09:00,18.0,17.8,29.77,SE,135,0.0,-999.0,99,-99.99,,,0.00,Acu-Link.com,2013-03-05 07:09:00,
2013-03-05 02:24:00,18.0,17.8,29.78,West,270,0.0,-999.0,99,-99.99,,,0.00,Acu-Link.com,2013-03-05 07:24:00,
2013-03-05 02:39:00,18.0,17.8,29.78,SSE,157,0.0,-999.0,99,-99.99,,,0.00,Acu-Link.com,2013-03-05 07:39:00,
2013-03-05 02:55:00,18.1,17.9,29.78,SW,225,0.0,-999.0,99,-99.99,,,0.00,Acu-Link.com,2013-03-05 07:55:00,
2013-03-05 03:10:00,18.1,17.9,29.79,SW,225,0.0,-999.0,99,-99.99,,,0.00,Acu-Link.com,2013-03-05 08:10:00,
2013-03-05 03:25:00,18.1,17.9,29.80,SE,135,0.0,-999.0,99,-99.99,,,0.00,Acu-Link.com,2013-03-05 08:25:00,
2013-03-05 03:40:00,18.5,18.3,29.81,West,270,0.0,-999.0,99,-99.99,,,0.00,Acu-Link.com,2013-03-05 08:40:00,
2013-03-05 03:55:00,18.5,18.3,29.81,West,270,0.0,-999.0,99,-99.99,,,0.00,Acu-Link.com,2013-03-05 08:55:00,
2013-03-05 04:11:00,18.5,18.3,29.82,South,180,0.0,-999.0,99,-99.99,,,0.00,Acu-Link.com,2013-03-05 09:11:00,
2013-03-05 04:26:00,18.7,18.5,29.83,SSW,202,0.0,-999.0,99,-99.99,,,0.00,Acu-Link.com,2013-03-05 09:26:00,
2013-03-05 04:41:00,18.7,18.5,29.83,West,270,0.0,-999.0,99,-99.99,,,0.00,Acu-Link.com,2013-03-05 09:41:00,
2013-03-05 04:56:00,18.7,18.5,29.83,SSE,157,0.0,-999.0,99,-99.99,,,0.00,Acu-Link.com,2013-03-05 09:56:00,
2013-03-05 05:11:00,18.9,18.7,29.83,SSW,202,0.0,-999.0,99,-99.99,,,0.00,Acu-Link.com,2013-03-05 10:11:00,
2013-03-05 05:27:00,18.9,18.7,29.85,West,270,0.0,-999.0,99,-99.99,,,0.00,Acu-Link.com,2013-03-05 10:27:00,
2013-03-05 05:42:00,18.9,18.7,29.86,WSW,247,0.0,-999.0,99,-99.99,,,0.00,Acu-Link.com,2013-03-05 10:42:00,
2013-03-05 05:57:00,19.0,18.8,29.87,West,270,0.0,-999.0,99,-99.99,,,0.00,Acu-Link.com,2013-03-05 10:57:00,
2013-03-05 06:12:00,19.2,19.0,29.87,WSW,247,0.0,-999.0,99,-99.99,,,0.00,Acu-Link.com,2013-03-05 11:12:00,
2013-03-05 06:28:00,19.4,19.2,29.88,West,270,0.0,-999.0,99,-99.99,,,0.00,Acu-Link.com,2013-03-05 11:28:00,
2013-03-05 06:43:00,19.8,19.6,29.88,West,270,0.0,-999.0,99,-99.99,,,0.00,Acu-Link.com,2013-03-05 11:43:00,
2013-03-05 06:58:00,20.1,19.9,29.88,SSW,202,0.0,-999.0,99,-99.99,,,0.00,Acu-Link.com,2013-03-05 11:58:00,
2013-03-05 07:13:00,20.8,20.1,29.89,SW,225,0.0,-999.0,97,-99.99,,,0.00,Acu-Link.com,2013-03-05 12:13:00,
2013-03-05 07:28:00,21.4,20.4,29.89,West,270,0.0,-999.0,96,-99.99,,,0.00,Acu-Link.com,2013-03-05 12:28:00,
2013-03-05 07:44:00,22.6,20.9,29.90,West,270,0.0,-999.0,93,-99.99,,,0.00,Acu-Link.com,2013-03-05 12:44:00,
2013-03-05 07:59:00,23.7,21.7,29.91,SSW,202,0.0,-999.0,92,-99.99,,,0.00,Acu-Link.com,2013-03-05 12:59:00,
2013-03-05 08:14:00,24.3,21.8,29.89,WSW,247,0.0,-999.0,90,-99.99,,,0.00,Acu-Link.com,2013-03-05 13:14:00,
2013-03-05 08:29:00,24.4,21.9,29.90,WSW,247,0.0,-999.0,90,-99.99,,,0.00,Acu-Link.com,2013-03-05 13:29:00,
2013-03-05 08:44:00,26.6,23.8,29.91,WSW,247,0.0,-999.0,89,-99.99,,,0.00,Acu-Link.com,2013-03-05 13:44:00,
2013-03-05 09:00:00,27.9,24.5,29.91,NW,315,0.0,-999.0,87,-99.99,,,0.00,Acu-Link.com,2013-03-05 14:00:00,
2013-03-05 09:15:00,28.0,24.4,29.90,WSW,247,0.0,-999.0,86,-99.99,,,0.00,Acu-Link.com,2013-03-05 14:15:00,
2013-03-05 09:30:00,28.2,24.0,29.91,West,270,0.0,-999.0,84,-99.99,,,0.00,Acu-Link.com,2013-03-05 14:30:00,
2013-03-05 09:45:00,26.8,23.5,29.91,West,270,0.0,-999.0,87,-99.99,,,0.00,Acu-Link.com,2013-03-05 14:45:00,
2013-03-05 10:00:00,28.0,24.6,29.91,WSW,247,0.0,-999.0,87,-99.99,,,0.00,Acu-Link.com,2013-03-05 15:00:00,
2013-03-05 10:16:00,28.0,24.6,29.90,WSW,247,0.0,-999.0,87,-99.99,,,0.00,Acu-Link.com,2013-03-05 15:16:00,
2013-03-05 10:31:00,28.8,25.7,29.91,SW,225,0.0,-999.0,88,-99.99,,,0.00,Acu-Link.com,2013-03-05 15:31:00,
2013-03-05 10:46:00,28.6,25.5,29.90,WSW,247,0.0,-999.0,88,-99.99,,,0.00,Acu-Link.com,2013-03-05 15:46:00,
2013-03-05 11:01:00,29.7,26.3,29.90,WSW,247,0.0,-999.0,87,-99.99,,,0.00,Acu-Link.com,2013-03-05 16:01:00,
2013-03-05 11:17:00,29.8,27.0,29.91,WSW,247,0.0,-999.0,89,-99.99,,,0.00,Acu-Link.com,2013-03-05 16:17:00,
2013-03-05 11:32:00,30.9,27.8,29.91,SSW,202,0.0,-999.0,88,-99.99,,,0.00,Acu-Link.com,2013-03-05 16:32:00,
2013-03-05 11:47:00,31.5,28.1,29.91,SW,225,0.0,-999.0,87,-99.99,,,0.00,Acu-Link.com,2013-03-05 16:47:00,
2013-03-05 12:02:00,32.4,29.0,29.92,WSW,247,0.0,-999.0,87,-99.99,,,0.00,Acu-Link.com,2013-03-05 17:02:00,
2013-03-05 12:17:00,35.4,30.5,29.91,SW,225,0.0,-999.0,82,-99.99,,,0.00,Acu-Link.com,2013-03-05 17:17:00,
2013-03-05 12:33:00,37.8,31.6,29.91,NNW,337,0.0,-999.0,78,-99.99,,,0.00,Acu-Link.com,2013-03-05 17:33:00,
2013-03-05 12:48:00,41.7,32.3,29.91,SSW,202,0.0,-999.0,69,-99.99,,,0.00,Acu-Link.com,2013-03-05 17:48:00,
2013-03-05 13:04:00,39.0,31.4,29.93,North,0,0.0,-999.0,74,-99.99,,,0.00,Acu-Link.com,2013-03-05 18:04:00,
2013-03-05 13:19:00,39.0,31.8,29.92,SE,135,0.0,-999.0,75,-99.99,,,0.00,Acu-Link.com,2013-03-05 18:19:00,
2013-03-05 13:34:00,38.5,31.3,29.92,SSW,202,0.0,-999.0,75,-99.99,,,0.00,Acu-Link.com,2013-03-05 18:34:00,
2013-03-05 13:50:00,40.8,32.8,29.93,West,270,0.0,-999.0,73,-99.99,,,0.00,Acu-Link.com,2013-03-05 18:50:00,
2013-03-05 14:05:00,37.6,31.4,29.93,West,270,1.7,-999.0,78,-99.99,,,0.01,Acu-Link.com,2013-03-05 19:05:00,
2013-03-05 14:20:00,36.9,31.6,29.93,SSW,202,2.7,-999.0,81,-99.99,,,0.01,Acu-Link.com,2013-03-05 19:20:00,
2013-03-05 14:35:00,39.4,32.1,29.94,SW,225,1.1,-999.0,75,-99.99,,,0.02,Acu-Link.com,2013-03-05 19:35:00,
2013-03-05 14:50:00,35.8,31.2,29.94,ESE,112,4.2,-999.0,83,-99.99,,,0.03,Acu-Link.com,2013-03-05 19:50:00,
2013-03-05 15:06:00,37.6,32.0,29.94,ESE,112,2.2,-999.0,80,-99.99,,,0.03,Acu-Link.com,2013-03-05 20:06:00,
2013-03-05 15:21:00,37.6,32.3,29.94,ESE,112,2.7,-999.0,81,-99.99,,,0.03,Acu-Link.com,2013-03-05 20:21:00,
2013-03-05 15:36:00,37.4,32.7,29.95,SSE,157,2.2,-999.0,83,-99.99,,,0.03,Acu-Link.com,2013-03-05 20:36:00,
2013-03-05 15:51:00,37.6,32.9,29.95,NNW,337,1.1,-999.0,83,-99.99,,,0.03,Acu-Link.com,2013-03-05 20:51:00,
2013-03-05 16:06:00,36.1,32.3,29.95,SSW,202,1.7,-999.0,86,-99.99,,,0.03,Acu-Link.com,2013-03-05 21:06:00,
2013-03-05 16:22:00,36.1,32.3,29.96,ENE,67,2.2,-999.0,86,-99.99,,,0.04,Acu-Link.com,2013-03-05 21:22:00,
2013-03-05 16:37:00,35.1,32.2,29.97,NNE,22,1.7,-999.0,89,-99.99,,,0.05,Acu-Link.com,2013-03-05 21:37:00,
2013-03-05 16:52:00,34.0,31.7,29.97,North,0,0.0,-999.0,91,-99.99,,,0.06,Acu-Link.com,2013-03-05 21:52:00,
2013-03-05 17:07:00,33.6,31.5,29.97,East,90,1.7,-999.0,92,-99.99,,,0.06,Acu-Link.com,2013-03-05 22:07:00,
2013-03-05 17:22:00,33.8,31.7,29.98,WSW,247,1.7,-999.0,92,-99.99,,,0.06,Acu-Link.com,2013-03-05 22:22:00,
2013-03-05 17:38:00,33.3,31.8,29.98,North,0,1.1,-999.0,94,-99.99,,,0.06,Acu-Link.com,2013-03-05 22:38:00,
2013-03-05 17:53:00,32.7,31.4,29.99,SW,225,0.0,-999.0,95,-99.99,,,0.07,Acu-Link.com,2013-03-05 22:53:00,
2013-03-05 18:08:00,32.0,31.2,29.99,ESE,112,0.0,-999.0,97,-99.99,,,0.07,Acu-Link.com,2013-03-05 23:08:00,
2013-03-05 18:23:00,31.6,31.1,29.99,SW,225,0.0,-999.0,98,-99.99,,,0.07,Acu-Link.com,2013-03-05 23:23:00,
2013-03-05 18:38:00,31.6,31.1,30.00,NNE,22,0.0,-999.0,98,-99.99,,,0.07,Acu-Link.com,2013-03-05 23:38:00,
2013-03-05 18:54:00,31.5,31.0,30.00,SW,225,0.0,-999.0,98,-99.99,,,0.07,Acu-Link.com,2013-03-05 23:54:00,
2013-03-05 19:09:00,31.3,31.1,30.00,SSW,202,0.0,-999.0,99,-99.99,,,0.07,Acu-Link.com,2013-03-06 00:09:00,
2013-03-05 19:24:00,31.3,31.1,30.01,West,270,1.1,-999.0,99,-99.99,,,0.07,Acu-Link.com,2013-03-06 00:24:00,
2013-03-05 19:39:00,31.1,30.9,30.01,SW,225,0.0,-999.0,99,-99.99,,,0.08,Acu-Link.com,2013-03-06 00:39:00,
2013-03-05 19:55:00,30.9,30.7,30.01,ESE,112,0.0,-999.0,99,-99.99,,,0.08,Acu-Link.com,2013-03-06 00:55:00,
2013-03-05 20:10:00,30.9,30.7,30.02,ESE,112,1.7,-999.0,99,-99.99,,,0.08,Acu-Link.com,2013-03-06 01:10:00,
2013-03-05 20:25:00,30.9,30.7,30.01,East,90,1.1,-999.0,99,-99.99,,,0.08,Acu-Link.com,2013-03-06 01:25:00,
2013-03-05 20:40:00,30.4,30.2,30.01,NNE,22,0.0,-999.0,99,-99.99,,,0.08,Acu-Link.com,2013-03-06 01:40:00,
2013-03-05 20:55:00,29.8,29.6,30.00,East,90,1.1,-999.0,99,-99.99,,,0.08,Acu-Link.com,2013-03-06 01:55:00,
2013-03-05 21:11:00,29.1,28.9,30.01,South,180,1.1,-999.0,99,-99.99,,,0.08,Acu-Link.com,2013-03-06 02:11:00,
2013-03-05 21:26:00,30.7,30.5,30.00,ESE,112,5.8,-999.0,99,-99.99,,,0.08,Acu-Link.com,2013-03-06 02:26:00,
2013-03-05 21:41:00,30.7,30.2,30.01,ESE,112,4.2,-999.0,98,-99.99,,,0.08,Acu-Link.com,2013-03-06 02:41:00,
2013-03-05 21:56:00,30.7,30.2,30.00,East,90,5.3,-999.0,98,-99.99,,,0.08,Acu-Link.com,2013-03-06 02:56:00,
2013-03-05 22:11:00,30.7,30.0,30.00,ESE,112,5.8,-999.0,97,-99.99,,,0.08,Acu-Link.com,2013-03-06 03:11:00,
2013-03-05 22:27:00,30.6,29.9,30.01,East,90,9.9,-999.0,97,-99.99,,,0.08,Acu-Link.com,2013-03-06 03:27:00,
2013-03-05 22:42:00,30.4,29.1,30.02,SSE,157,3.2,-999.0,95,-99.99,,,0.08,Acu-Link.com,2013-03-06 03:42:00,
2013-03-05 22:57:00,30.2,28.9,30.02,ESE,112,2.7,-999.0,95,-99.99,,,0.08,Acu-Link.com,2013-03-06 03:57:00,
2013-03-05 23:12:00,29.8,28.5,30.02,ESE,112,2.2,-999.0,95,-99.99,,,0.08,Acu-Link.com,2013-03-06 04:12:00,
2013-03-05 23:27:00,29.7,28.4,30.02,SE,135,4.2,-999.0,95,-99.99,,,0.08,Acu-Link.com,2013-03-06 04:27:00,
2013-03-05 23:43:00,30.2,28.2,30.03,SE,135,3.2,-999.0,92,-99.99,,,0.08,Acu-Link.com,2013-03-06 04:43:00,
2013-03-05 23:58:00,30.2,28.2,30.04,SSE,157,4.2,-999.0,92,-99.99,,,0.08,Acu-Link.com,2013-03-06 04:58:00,